Theta_e
321 325 325 323 323 323 323 323 324 323 320 321 323 324 329 332 337 337 338 339 336 331 328 321 321 321 320 320 319 319 319 318 318 318 318 317 318 319 317 315 314 315 313 315
324 325 321 320 321 323 323 324 323 322 320 322 320 324 330 331 333 334 336 337 334 332 327 322 322 321 321 321 320 320 320 320 319 319 318 319 318 317 317 316 314 314 313 314
325 322 319 322 323 325 323 323 323 323 321 318 319 321 327 329 329 330 332 336 334 333 330 326 323 323 324 323 322 322 321 322 322 321 319 318 318 316 316 316 315 314 314 314
324 322 322 323 324 322 324 321 321 321 321 323 317 322 323 324 330 330 331 331 331 330 328 326 325 325 326 326 325 322 317 318 322 325 324 321 319 319 319 318 318 317 317 317
325 323 323 324 322 321 324 319 319 319 320 320 321 321 320 324 326 329 330 331 330 330 329 328 327 326 324 323 319 316 315 316 319 324 323 319 314 312 311 311 311 311 311 310
324 321 322 323 320 318 317 319 317 318 319 322 320 322 323 326 327 327 328 329 329 329 325 324 319 317 316 315 315 315 315 314 312 311 311 310 310 310 310 310 309 309 308 308
324 324 323 322 325 321 323 323 323 321 321 321 319 324 326 324 323 327 328 328 327 321 318 317 315 314 314 313 312 312 311 311 311 310 311 311 310 309 308 308 308 308 308 308
328 327 325 322 324 324 319 321 322 321 321 321 320 325 325 322 319 319 321 324 318 316 316 314 313 312 312 312 312 311 311 311 311 311 310 309 308 307 307 307 307 308 307 307
327 327 323 320 319 320 321 322 318 323 320 322 322 322 323 322 320 319 319 318 316 314 313 313 312 313 312 312 311 311 311 311 310 309 308 307 306 307 307 307 307 307 306 305
325 329 323 324 319 317 319 318 323 323 324 322 322 321 322 324 323 320 319 317 314 313 312 313 313 312 312 312 311 311 311 310 309 307 307 306 306 306 307 308 308 307 306 306
324 328 325 324 323 324 320 321 319 321 322 323 323 322 320 322 322 322 319 315 314 313 313 313 313 313 312 311 310 310 309 308 308 307 306 306 306 307 308 308 308 308 308 308
323 326 326 324 321 319 321 320 321 323 324 321 321 323 318 319 317 317 317 314 313 313 314 313 313 312 311 310 310 310 309 308 308 307 306 305 305 307 308 308 309 309 309 308
324 325 327 320 321 321 322 319 318 319 319 325 326 325 318 316 316 315 315 315 314 313 314 313 312 312 311 310 310 309 308 308 307 306 305 304 306 308 309 309 309 309 308 307
322 324 324 322 320 321 323 322 321 322 326 322 322 322 321 320 318 316 316 315 314 314 314 313 312 312 310 310 309 308 307 307 306 306 306 306 307 308 308 308 309 308 308 306
323 327 323 322 320 320 322 322 322 323 323 324 322 322 322 321 319 317 316 315 315 315 314 312 312 311 309 309 308 308 307 307 307 307 307 306 307 308 308 308 308 308 308 307
319 327 322 325 322 322 324 323 323 323 322 321 321 321 318 316 315 316 316 315 315 315 313 312 311 310 309 308 307 308 308 307 307 307 306 305 307 307 308 309 308 308 308 307
324 326 326 325 321 323 324 322 322 322 320 320 322 320 317 318 317 317 317 317 315 314 312 312 311 310 308 306 308 308 308 308 308 306 306 305 306 306 309 309 308 308 308 307
324 325 324 325 322 325 320 318 319 321 322 320 319 318 317 318 317 316 317 316 315 312 311 311 310 308 307 307 309 309 308 308 307 305 305 305 305 308 309 309 309 308 309 308
321 324 326 326 323 323 323 320 321 322 324 322 320 319 317 317 317 318 315 315 313 311 310 309 308 307 306 308 309 308 308 307 305 305 305 305 307 309 310 309 309 309 308 307
318 321 325 321 325 326 326 320 319 319 328 322 319 320 319 317 322 319 315 314 312 311 309 308 307 306 306 308 308 308 307 307 304 304 305 306 308 310 310 310 310 309 308 307
323 322 325 323 324 324 322 319 317 328 331 321 319 321 319 320 319 316 315 312 311 309 309 308 306 305 306 308 308 307 307 305 304 304 305 306 308 310 310 310 309 308 308 306
326 327 325 322 324 324 319 318 326 328 320 319 318 318 318 318 317 316 314 312 310 309 308 307 305 305 305 307 307 307 306 304 304 303 304 306 308 310 310 310 308 308 307 307
325 324 327 327 326 323 318 323 319 319 319 319 319 318 317 317 317 316 314 312 309 309 308 306 305 304 305 307 307 307 306 305 304 304 305 306 309 310 310 309 308 308 308 308
321 318 324 322 325 320 319 319 320 321 320 319 319 318 318 317 317 315 313 310 309 308 307 306 305 303 305 307 307 307 305 304 304 304 305 306 309 310 310 309 308 309 309 310
321 320 324 324 322 319 319 319 320 320 320 320 319 319 318 318 316 314 311 309 309 308 306 306 304 303 305 306 307 306 305 303 303 304 305 306 309 310 309 309 309 309 309 310
318 323 324 324 323 323 323 320 320 320 319 319 318 319 318 317 316 314 310 309 308 307 306 304 303 303 304 305 306 305 304 303 303 304 305 307 309 310 309 309 310 310 309 313
Wind_Speed
5 4 5 4 5 7 7 4 1 2 3 3 4 9 11 17 17 16 14 14 13 15 14 15 12 13 14 13 11 11 11 13 16 16 16 18 19 18 19 17 24 22 23 26
3 6 3 6 6 6 3 2 3 2 3 4 4 5 5 14 14 14 15 15 17 16 17 17 17 17 17 16 13 12 15 17 20 22 23 23 22 24 25 27 25 29 29 29
4 5 4 1 3 3 2 1 1 4 5 1 4 2 3 7 10 12 14 18 17 19 18 18 18 18 18 16 15 15 17 21 24 26 26 26 26 29 29 30 32 33 34 34
6 2 1 2 3 1 1 1 4 5 4 7 4 3 2 2 12 15 18 21 21 19 21 20 20 19 18 17 18 18 21 24 28 30 30 30 30 32 32 34 36 38 38 38
2 6 2 1 2 1 2 3 2 2 2 3 3 4 3 1 8 14 18 21 21 21 18 17 16 20 20 17 16 20 23 24 24 25 26 26 28 28 30 32 35 36 37 37
2 0 0 1 2 3 2 2 3 2 1 2 3 3 2 2 4 7 16 20 21 18 13 15 9 7 9 15 18 19 18 16 18 21 23 26 29 33 37 41 43 42 42 43
1 1 2 1 3 3 4 4 3 1 0 2 2 3 3 4 6 7 15 18 15 10 8 6 7 9 10 11 12 14 17 19 21 23 28 32 36 38 40 40 34 34 32 31
3 3 1 3 2 2 4 2 2 4 3 6 1 2 1 2 1 3 8 10 7 5 5 5 6 7 9 13 14 16 18 21 27 31 35 37 38 38 36 32 35 36 33 30
4 3 1 5 2 3 2 1 2 3 1 3 1 2 6 5 4 3 6 7 5 4 5 5 7 10 13 13 16 20 23 28 32 37 38 38 36 32 33 32 29 29 26 27
4 2 1 2 3 10 1 6 1 1 3 4 2 3 3 7 9 5 7 7 5 6 5 6 9 12 15 18 21 24 27 32 38 37 35 33 32 31 28 27 27 27 27 28
3 0 1 2 2 1 2 2 4 1 2 3 5 3 2 4 6 9 10 8 5 5 5 8 12 14 15 21 23 27 32 33 29 28 31 32 32 29 25 25 24 24 25 26
2 2 2 2 1 4 2 1 1 2 2 1 2 7 2 3 4 3 9 6 3 5 7 11 13 15 20 22 25 27 28 27 25 27 29 29 29 24 24 24 25 25 26 26
6 2 1 2 2 2 1 2 4 4 0 6 5 6 2 2 4 5 4 3 5 7 9 12 12 16 19 22 24 25 26 25 25 26 29 25 21 23 24 24 26 23 26 27
4 3 3 2 2 1 4 3 3 3 3 8 11 17 13 7 9 7 5 5 5 8 12 12 15 18 21 23 25 26 27 26 24 28 27 23 23 24 24 27 29 25 26 25
2 3 3 3 4 4 7 9 7 8 9 6 13 13 17 12 8 8 6 6 9 11 12 14 16 20 23 24 26 27 29 28 28 29 27 23 25 26 26 29 27 26 26 22
1 2 2 3 1 3 7 11 10 10 6 10 12 14 4 2 4 6 7 9 11 12 12 15 16 20 23 25 27 29 30 30 29 29 25 24 26 25 27 26 25 26 24 22
4 5 3 3 2 6 7 6 4 3 4 4 5 4 3 5 8 8 9 10 13 11 13 15 17 20 24 26 28 28 30 30 29 27 26 27 26 27 28 25 23 26 24 21
6 5 0 3 3 4 2 2 5 7 9 8 10 8 7 7 6 8 10 11 10 11 13 14 17 22 26 25 26 26 28 28 29 29 29 28 24 28 27 23 25 23 24 23
1 5 3 3 3 5 4 4 4 3 6 8 9 6 7 5 5 12 7 11 11 12 14 17 21 25 26 25 26 26 29 28 28 30 30 26 26 29 27 24 22 22 22 24
5 3 4 3 3 4 1 3 4 4 4 4 9 8 10 6 4 4 6 5 8 11 14 18 22 25 24 25 25 25 27 28 28 30 29 24 26 27 26 25 25 22 17 17
3 2 8 6 6 6 8 7 7 3 3 3 10 9 11 8 8 5 6 7 9 11 14 18 21 24 23 25 25 25 27 26 29 29 28 23 26 28 27 27 24 21 13 16
9 8 4 3 5 8 10 8 7 4 4 6 9 12 14 14 11 8 8 9 10 12 15 18 22 24 22 23 25 26 25 25 30 28 27 23 26 28 28 25 22 21 16 15
5 6 4 9 5 1 16 8 15 8 9 8 9 11 14 13 12 8 9 10 10 13 15 18 21 24 21 21 23 24 23 25 30 27 26 24 27 28 27 25 22 22 20 21
4 4 4 3 7 17 15 16 18 17 20 16 15 14 14 13 10 8 9 9 10 13 15 18 21 23 21 21 23 22 22 23 26 26 26 25 28 29 27 24 21 21 22 22
1 10 6 4 10 8 11 14 8 11 15 18 20 19 16 13 11 8 9 9 10 12 14 17 20 22 21 21 22 21 21 23 24 24 24 25 28 29 27 24 20 19 20 20
6 4 5 7 12 8 10 9 12 17 19 21 23 22 18 14 11 9 8 8 9 11 14 17 19 21 21 19 20 20 20 21 23 24 24 25 27 29 25 23 21 17 20 19
Wind_Direction
23 95 80 66 87 112 120 111 101 182 176 276 234 271 216 188 190 187 184 184 182 189 189 188 203 214 222 230 242 251 263 265 269 277 286 286 285 283 287 302 300 309 302 304
96 96 91 102 86 100 105 98 36 279 353 319 351 17 150 193 201 202 194 193 200 206 209 214 224 234 240 243 255 272 277 276 274 276 277 281 282 284 287 289 287 296 291 294
112 115 146 91 73 59 50 39 296 303 345 68 321 151 175 197 206 205 208 210 216 219 228 239 243 246 251 260 267 281 285 280 278 277 278 278 285 289 289 284 282 281 281 286
84 136 176 58 76 347 289 258 283 287 294 315 349 300 194 214 219 222 217 217 224 227 236 248 257 265 275 279 279 279 285 283 280 280 282 286 293 293 291 290 287 286 282 282
106 170 162 58 26 254 11 6 6 358 154 212 30 274 103 225 227 225 219 219 225 231 243 259 275 282 282 277 275 284 286 289 291 290 291 292 294 297 299 298 296 292 288 284
78 280 9 90 106 52 334 249 66 88 161 192 20 315 138 275 291 226 214 219 222 233 247 262 274 288 281 280 284 289 297 304 302 295 293 294 297 299 299 298 297 297 294 293
44 8 330 191 228 164 14 352 328 222 348 340 18 256 340 296 254 235 209 211 219 223 228 237 275 284 285 290 297 302 302 300 295 298 299 300 301 303 304 304 305 303 301 297
197 212 343 6 14 348 48 355 312 311 310 319 215 233 56 222 312 256 239 212 183 189 227 263 276 293 303 305 299 298 294 299 305 306 307 307 307 308 306 304 303 304 302 304
174 234 14 41 60 328 130 260 65 114 118 263 296 235 248 210 202 172 148 154 156 195 214 260 289 303 305 304 305 303 306 309 308 310 310 309 310 310 307 305 307 309 308 310
166 217 71 97 125 54 282 129 228 105 288 295 240 271 287 218 223 193 182 179 184 211 250 287 305 310 317 313 307 308 311 311 311 311 310 310 311 312 308 307 309 306 301 300
126 119 125 239 23 294 154 190 66 64 304 283 301 304 184 262 283 248 211 192 204 223 248 295 311 317 315 314 309 308 312 314 313 313 313 313 313 313 311 311 309 308 305 306
44 109 253 352 347 289 342 19 178 223 203 188 303 285 166 279 302 233 186 197 231 254 285 308 311 314 316 315 313 316 317 317 315 316 316 312 313 312 310 308 310 310 310 304
176 52 309 186 169 135 171 121 106 95 82 214 265 268 160 234 225 201 204 247 268 283 301 307 311 312 318 316 317 319 320 319 320 321 325 319 319 316 317 314 317 313 313 310
114 129 197 249 295 284 258 199 206 233 241 284 254 289 289 278 238 219 238 267 293 295 300 305 312 315 318 318 322 323 324 324 321 324 325 325 325 323 322 322 322 316 317 310
102 189 206 261 245 234 266 268 251 236 256 251 292 285 290 306 245 233 255 269 293 296 300 309 313 316 320 322 325 328 330 329 326 327 326 322 324 325 328 328 327 320 324 316
58 155 188 265 320 241 275 279 261 253 257 256 277 282 311 274 211 232 261 276 287 293 300 309 313 319 323 325 328 337 339 337 331 327 330 321 326 333 334 330 328 334 331 326
153 151 174 277 329 310 270 236 213 240 215 247 271 324 236 226 235 252 273 282 278 285 302 310 318 320 323 327 332 335 336 334 335 335 331 333 334 333 335 335 339 340 338 328
140 124 133 293 307 246 61 205 280 259 278 233 262 258 240 249 254 270 276 278 276 287 303 313 317 320 327 330 332 329 330 333 340 341 339 337 333 335 337 340 340 338 341 341
165 140 136 259 245 314 232 193 184 185 287 229 243 248 223 231 292 288 289 279 275 293 306 314 321 326 329 330 327 322 331 335 337 341 336 338 340 340 341 339 337 331 324 332
88 76 218 167 232 260 243 168 162 157 279 226 217 232 206 183 267 328 325 292 283 296 306 318 326 329 328 330 327 327 330 334 340 339 340 344 346 347 347 352 345 336 335 338
158 162 220 209 239 270 247 162 150 225 257 219 217 223 193 208 240 277 309 301 301 300 309 321 329 331 329 330 332 330 333 340 342 343 346 350 352 352 354 356 350 351 340 335
188 172 191 173 223 262 171 136 197 217 245 251 230 237 230 240 252 277 286 299 299 303 312 322 330 335 333 332 332 334 339 342 345 349 350 354 354 356 1 355 353 357 359 345
206 207 192 195 216 216 192 218 220 268 278 269 257 268 250 246 250 261 283 292 295 301 313 323 331 335 338 332 335 336 342 345 347 351 356 355 359 4 3 359 4 6 4 12
220 170 212 160 234 244 240 235 255 270 271 270 268 272 253 247 247 258 277 285 296 304 315 325 331 337 337 332 336 339 342 349 350 353 357 359 3 8 5 11 14 11 4 8
318 165 189 238 269 268 259 238 254 293 291 270 269 266 257 244 243 255 271 281 297 307 318 327 332 336 335 333 336 346 349 352 353 358 0 2 6 10 11 21 21 11 5 359
201 204 207 248 248 226 237 244 294 296 297 294 277 264 250 234 238 254 257 280 302 311 322 328 331 334 332 337 340 347 353 358 357 359 1 3 8 10 18 24 32 27 21 50